• Join FlightAware (Why Join?)
  • Login
  • US Flag 
07:00AM EST


 

Airport Tracker/Info


-or-


 

Live Flight TrackerFlight Track Log ✈ UAL33 ✈ 27-Jun-2013 ✈ KIAH - KORD

Flight Track Log - Related Links

Times and Time Zones

All times are in EDT time to prevent confusion due to time zone crossing. See the UAL33 flight status page for this flight to view local times or setup timezone preferences in your user account.

Time Position Orientation Groundspeed Altitude Reporting Facility
EDT Latitude Longitude Course Direction KTS MPH feet Rate Location/Type
06:06PM 29.9556 -95.3391 167° South 168 193 800  Level FlightAware ADS-B
06:07PM 29.9531 -95.3388 174° South 168 193 1,000 2,571 Climbing FlightAware ADS-B
06:07PM 29.9503 -95.3389 182° South 168 193 1,100 1,800 Climbing FlightAware ADS-B
06:07PM 29.9452 -95.3406 196° South 168 193 1,300 2,000 Climbing FlightAware ADS-B
06:07PM 29.9431 -95.3419 208° Southwest 173 199 1,400 1,500 Climbing FlightAware ADS-B
06:07PM 29.9397 -95.3450 218° Southwest 178 205 1,500 1,333 Climbing FlightAware ADS-B
06:07PM 29.9377 -95.3478 231° Southwest 183 211 1,600 1,500 Climbing FlightAware ADS-B
06:07PM 29.9361 -95.3507 238° Southwest 188 216 1,700 750 Climbing FlightAware ADS-B
06:07PM 29.9346 -95.3545 246° West 194 223 1,700 545 Level FlightAware ADS-B
06:07PM 29.9333 -95.3621 259° West 207 238 1,800 1,091 Climbing FlightAware ADS-B
06:07PM 29.9333 -95.3669 270° West 215 247 1,900 667 Climbing FlightAware ADS-B
06:07PM 29.9342 -95.3727 280° West 227 261 1,900 1,091 Level FlightAware ADS-B
06:07PM 29.9366 -95.3794 292° West 234 269 2,100 2,000 Climbing FlightAware ADS-B
06:07PM 29.9385 -95.3829 302° West 236 272 2,200 2,000 Climbing FlightAware ADS-B
06:08PM 29.9407 -95.3860 309° West 239 275 2,300 1,714 Climbing FlightAware ADS-B
06:08PM 29.9434 -95.3891 315° West 244 281 2,400 1,500 Climbing FlightAware ADS-B
06:08PM 29.9468 -95.3923 321° Northwest 249 287 2,500 1,333 Climbing FlightAware ADS-B
06:08PM 29.9519 -95.3957 330° Northwest 257 296 2,600 1,500 Climbing FlightAware ADS-B
06:08PM 29.9553 -95.3974 337° Northwest 262 302 2,700 2,000 Climbing FlightAware ADS-B
06:08PM 29.9588 -95.3986 343° North 266 306 2,800 2,571 Climbing FlightAware ADS-B
06:08PM 29.9642 -95.3999 348° North 272 313 3,000 2,727 Climbing FlightAware ADS-B
06:08PM 29.9733 -95.4013 352° North 273 314 3,300 3,545 Climbing FlightAware ADS-B
06:08PM 29.9924 -95.4039 353° North 274 315 4,300 3,484 Climbing FlightAware ADS-B
06:09PM 30.0126 -95.4065 354° North 280 322 5,100 3,353 Climbing FlightAware ADS-B
06:09PM 30.0362 -95.4096 354° North 281 323 6,200 3,353 Climbing FlightAware ADS-B
06:09PM 30.0562 -95.4121 354° North 285 328 7,000 3,200 Climbing FlightAware ADS-B
06:10PM 30.0951 -95.4175 351° North 291 335 8,600 3,091 Climbing FlightAware ADS-B
06:10PM 30.0999 -95.4186 349° North 293 337 8,700 2,625 Climbing FlightAware ADS-B
06:10PM 30.1164 -95.4245 342° North 296 341 9,300 3,000 Climbing FlightAware ADS-B
06:10PM 30.1257 -95.4291 336° Northwest 298 343 9,700 1,765 Climbing FlightAware ADS-B
06:11PM 30.2077 -95.4736 335° Northwest 358 412 11,300 1,533 Climbing FlightAware ADS-B
06:11PM 30.2556 -95.4996 335° Northwest 394 453 12,000 1,377 Climbing FlightAware ADS-B
06:12PM 30.3080 -95.5282 335° Northwest 426 490 12,700 2,044 Climbing FlightAware ADS-B
06:13PM 30.4201 -95.5892 335° Northwest 452 520 15,100 2,478 Climbing FlightAware ADS-B
06:14PM 30.4800 -95.6218 335° Northwest 457 526 16,500 2,533 Climbing FlightAware ADS-B
06:14PM 30.5934 -95.6832 335° Northwest 470 541 18,900 2,077 Climbing FlightAware ADS-B
06:17PM 30.8486 -95.8194 335° Northwest 502 578 22,800 1,827 Climbing FlightAware ADS-B
06:18PM 31.0576 -95.9320 335° Northwest 523 602 25,600 1,734 Climbing FlightAware ADS-B
06:19PM 31.1296 -95.9652 340° North 527 606 26,500 1,500 Climbing FlightAware ADS-B
06:19PM 31.1854 -95.9822 346° North 530 610 27,000 2,000 Climbing FlightAware ADS-B
06:21PM 31.4066 -96.0340 349° North 515 593 30,400 2,078 Climbing FlightAware ADS-B
06:22PM 31.5477 -96.0670 349° North 512 589 32,300 1,851 Climbing FlightAware ADS-B
06:22PM 31.6260 -96.0854 349° North 510 587 33,300 1,652 Climbing FlightAware ADS-B
06:23PM 31.7058 -96.1043 349° North 512 589 34,200 1,520 Climbing FlightAware ADS-B
06:23PM 31.8006 -96.1267 349° North 512 589 35,200 1,479 Climbing FlightAware ADS-B
06:24PM 31.8749 -96.1444 349° North 508 585 36,000 1,355 Climbing FlightAware ADS-B
06:26PM 32.0830 -96.1940 348° North 497 572 38,000 1,200 Climbing FlightAware
06:27PM 32.2399 -96.2187 356° North 488 562 39,200 1,020 Climbing FlightAware ADS-B
06:27PM 32.3074 -96.2195 359° North 481 554 39,700 787 Climbing FlightAware ADS-B
06:28PM 32.3758 -96.2202 360° North 479 551 40,000 286 Climbing FlightAware ADS-B
06:28PM 32.4476 -96.2212 359° North 479 551 40,000  Level FlightAware ADS-B
06:29PM 32.5570 -96.2220 360° North 478 550 40,000  Level FlightAware
06:30PM 32.6450 -96.2230 359° North 478 550 40,000  Level FlightAware
06:31PM 32.7610 -96.2250 359° North 476 548 40,000  Level FlightAware
06:32PM 32.8880 -96.2260 360° North 475 547 40,000  Level FlightAware
06:32PM 32.9890 -96.2280 359° North 476 548 40,000  Level FlightAware
06:33PM 33.1050 -96.2170 North 469 540 40,000  Level FlightAware
06:34PM 33.1840 -96.1710 26° Northeast 466 536 40,000  Level FlightAware
06:35PM 33.2630 -96.1200 28° Northeast 469 540 40,000  Level FlightAware
06:36PM 33.3740 -96.0490 28° Northeast 467 537 40,000  Level FlightAware
06:37PM 33.4990 -95.9680 28° Northeast 468 539 40,000  Level FlightAware
06:38PM 33.6060 -95.8990 28° Northeast 468 539 40,000  Level FlightAware
06:38PM 33.6890 -95.8450 28° Northeast 472 543 40,000  Level FlightAware
06:39PM 33.7760 -95.7890 28° Northeast 474 545 40,000  Level FlightAware
06:44PM 34.3130 -95.4360 28° Northeast 468 539 40,000  Level FlightAware
06:44PM 34.3750 -95.3960 28° Northeast 468 539 40,000  Level FlightAware
06:45PM 34.4360 -95.3570 28° Northeast 468 539 40,000  Level FlightAware
06:46PM 34.5150 -95.3050 28° Northeast 468 539 40,000  Level FlightAware
06:46PM 34.5750 -95.2670 28° Northeast 468 539 40,000  Level FlightAware
06:47PM 34.6550 -95.2150 28° Northeast 468 539 40,000  Level FlightAware
06:48PM 34.7130 -95.1770 28° Northeast 468 539 40,000  Level FlightAware
06:49PM 34.8670 -95.0670 30° Northeast 469 540 40,000  Level FlightAware
06:49PM 34.9360 -95.0220 28° Northeast 469 540 40,000  Level FlightAware
06:50PM 34.8730 -95.0630 208° Southwest 469 540 40,000  Level FlightAware
06:51PM 35.1570 -94.8720 29° Northeast 470 541 40,000  Level FlightAware
06:52PM 35.2190 -94.8290 30° Northeast 470 541 40,000  Level FlightAware
06:53PM 35.3120 -94.7660 29° Northeast 468 539 40,000  Level FlightAware
06:53PM 35.3990 -94.7070 29° Northeast 471 542 40,000  Level FlightAware
06:54PM 35.5270 -94.6200 29° Northeast 475 547 40,000  Level FlightAware
06:56PM 35.6590 -94.5300 29° Northeast 480 552 40,000  Level FlightAware
06:56PM 35.7480 -94.4680 29° Northeast 479 551 40,000  Level FlightAware
06:57PM 35.8410 -94.4040 29° Northeast 478 550 40,000  Level FlightAware
06:58PM 35.9180 -94.3510 29° Northeast 478 550 40,000  Level FlightAware
06:58PM 35.9950 -94.2970 30° Northeast 475 547 40,000  Level FlightAware
06:59PM 36.0760 -94.2410 29° Northeast 478 550 40,000  Level FlightAware
07:00PM 36.1610 -94.1820 29° Northeast 480 552 40,000  Level FlightAware
07:01PM 36.2440 -94.1240 29° Northeast 482 555 40,000  Level FlightAware
07:01PM 36.3240 -94.0680 29° Northeast 480 552 40,000  Level FlightAware
07:02PM 36.4000 -94.0140 30° Northeast 480 552 40,000  Level FlightAware
07:03PM 36.4900 -93.9520 29° Northeast 478 550 40,000  Level FlightAware
07:03PM 36.5650 -93.8990 30° Northeast 474 545 40,000  Level FlightAware
07:04PM 36.6460 -93.8420 29° Northeast 472 543 40,000  Level FlightAware
07:05PM 36.7260 -93.7850 30° Northeast 475 547 40,000  Level FlightAware
07:05PM 36.8040 -93.7300 29° Northeast 476 548 40,000  Level FlightAware
07:06PM 36.8860 -93.6710 30° Northeast 475 547 40,000  Level FlightAware
07:07PM 36.9630 -93.6160 30° Northeast 472 543 40,000  Level FlightAware
07:08PM 37.0390 -93.5620 30° Northeast 472 543 40,000  Level FlightAware
07:08PM 37.1250 -93.5000 30° Northeast 472 543 40,000  Level FlightAware
07:09PM 37.2050 -93.4420 30° Northeast 470 541 40,000  Level FlightAware
07:10PM 37.2800 -93.3890 29° Northeast 472 543 40,000  Level FlightAware
07:10PM 37.3630 -93.3260 31° Northeast 476 548 40,000  Level FlightAware
07:11PM 37.4350 -93.2610 36° Northeast 478 550 40,000  Level FlightAware
07:12PM 37.5430 -93.1620 36° Northeast 481 554 40,000  Level FlightAware
07:13PM 37.6070 -93.1020 37° Northeast 484 557 40,000  Level FlightAware
07:13PM 37.6900 -93.0250 36° Northeast 487 560 40,000  Level FlightAware
07:14PM 37.7620 -92.9580 36° Northeast 489 563 40,000  Level FlightAware
07:15PM 37.8400 -92.8860 36° Northeast 492 566 40,000  Level FlightAware
07:15PM 37.9090 -92.8210 37° Northeast 490 564 40,000  Level FlightAware
07:16PM 37.9890 -92.7460 36° Northeast 486 559 40,000  Level FlightAware
07:17PM 38.0680 -92.6720 36° Northeast 487 560 40,000  Level FlightAware
07:18PM 38.1460 -92.5980 37° Northeast 483 556 40,000  Level FlightAware
07:19PM 38.2480 -92.5020 36° Northeast 481 554 40,000  Level FlightAware
07:19PM 38.3280 -92.4270 36° Northeast 482 555 40,000  Level FlightAware
07:20PM 38.4130 -92.3460 37° Northeast 482 555 40,000  Level FlightAware
07:21PM 38.4700 -92.2930 36° Northeast 482 555 40,000  Level FlightAware
07:22PM 38.5430 -92.2250 36° Northeast 482 555 40,000  Level FlightAware
07:22PM 38.5990 -92.1740 35° Northeast 482 555 40,000  Level FlightAware
07:23PM 38.6690 -92.1080 36° Northeast 482 555 40,000  Level FlightAware
07:24PM 38.7930 -91.9800 39° Northeast 483 556 40,000  Level FlightAware
07:25PM 38.8880 -91.8880 37° Northeast 486 559 40,000 -107 Level FlightAware
07:26PM 38.9940 -91.7850 37° Northeast 485 558 39,800 -667 Descending FlightAware
07:26PM 39.0660 -91.7150 37° Northeast 486 559 38,900 -1,055 Descending FlightAware
07:27PM 39.1510 -91.6320 37° Northeast 491 565 38,200 -420 Descending FlightAware
07:28PM 39.2250 -91.5600 37° Northeast 491 565 38,200 -800 Level FlightAware
07:29PM 39.3260 -91.4600 37° Northeast 501 577 37,000 -837 Descending FlightAware
07:29PM 39.4030 -91.3830 38° Northeast 500 575 37,000 -357 Level FlightAware
07:30PM 39.4800 -91.3080 37° Northeast 506 582 36,500 -789 Descending FlightAware
07:31PM 39.5460 -91.2420 38° Northeast 502 578 36,000 -538 Descending FlightAware
07:31PM 39.6140 -91.1750 37° Northeast 498 573 35,800 -1,023 Descending FlightAware
07:32PM 39.7060 -91.0830 38° Northeast 496 571 34,500 -1,432 Descending FlightAware
07:33PM 39.7830 -91.0050 38° Northeast 488 562 33,700 -1,011 Descending FlightAware
07:33PM 39.8630 -90.9260 37° Northeast 487 560 33,000 -477 Descending FlightAware
07:34PM 39.9410 -90.8470 38° Northeast 507 583 33,000  Level FlightAware
07:35PM 40.0100 -90.7780 37° Northeast 513 590 33,000  Level FlightAware
07:36PM 40.0990 -90.6870 38° Northeast 515 593 33,000  Level FlightAware
07:36PM 40.1710 -90.6130 38° Northeast 517 595 33,000  Level FlightAware
07:37PM 40.2540 -90.5290 38° Northeast 519 597 33,000  Level FlightAware
07:38PM 40.3310 -90.4510 38° Northeast 518 596 33,000  Level FlightAware
07:38PM 40.4080 -90.3710 38° Northeast 518 596 33,000  Level FlightAware
07:39PM 40.4900 -90.2870 38° Northeast 509 586 33,000  Level FlightAware
07:40PM 40.5590 -90.2160 38° Northeast 499 574 33,000  Level FlightAware
07:40PM 40.6440 -90.1280 38° Northeast 498 573 33,000 -133 Level FlightAware
07:41PM 40.7150 -90.0540 38° Northeast 496 571 32,800 -1,143 Descending FlightAware
07:42PM 40.7930 -89.9730 38° Northeast 488 562 31,400 -1,976 Descending FlightAware
07:43PM 40.8700 -89.8930 38° Northeast 475 547 30,000 -1,902 Descending FlightAware
07:43PM 40.9360 -89.8230 39° Northeast 464 534 28,800 -1,829 Descending FlightAware
07:44PM 41.0050 -89.7510 38° Northeast 454 522 27,500 -1,929 Descending FlightAware
07:45PM 41.0700 -89.6830 38° Northeast 447 514 26,100 -2,296 Descending FlightAware
07:45PM 41.1410 -89.6050 40° Northeast 450 518 24,400 -2,000 Descending FlightAware
07:46PM 41.1930 -89.5060 55° Northeast 449 517 23,200 -1,857 Descending FlightAware
07:47PM 41.2320 -89.4090 62° Northeast 443 510 21,800 -2,169 Descending FlightAware
07:47PM 41.2740 -89.3050 62° Northeast 441 507 20,200 -1,977 Descending FlightAware
07:48PM 41.3160 -89.2000 62° Northeast 428 493 18,900 -1,857 Descending FlightAware
07:49PM 41.3520 -89.1100 62° Northeast 420 483 17,600 -1,929 Descending FlightAware
07:50PM 41.3920 -89.0110 62° Northeast 409 471 16,200 -2,071 Descending FlightAware
07:50PM 41.4280 -88.9210 62° Northeast 399 459 14,700 -2,286 Descending FlightAware
07:51PM 41.4650 -88.8280 62° Northeast 390 449 13,000 -2,143 Descending FlightAware
07:52PM 41.4990 -88.7420 62° Northeast 386 444 11,700 -1,317 Descending FlightAware
07:52PM 41.5340 -88.6540 62° Northeast 382 440 11,200 -361 Descending FlightAware
07:53PM 41.5660 -88.5710 63° Northeast 384 442 11,200  Level FlightAware
07:54PM 41.6000 -88.4880 61° Northeast 383 441 11,200 -565 Level FlightAware
07:54PM 41.6470 -88.4020 54° Northeast 376 433 10,400 -714 Descending FlightAware
07:55PM 41.6890 -88.3300 52° Northeast 378 435 10,200 -140 Descending FlightAware
07:56PM 41.7400 -88.2420 52° Northeast 374 430 10,200 -270 Level FlightAware
07:57PM 41.7820 -88.1700 52° Northeast 345 397 9,800 -1,029 Descending FlightAware
07:57PM 41.8080 -88.1250 52° Northeast 320 368 9,000 -1,463 Descending FlightAware
07:57PM 41.8200 -88.1050 51° Northeast 312 359 8,800 -750 Descending FlightAware
07:58PM 41.8440 -88.0610 54° Northeast 304 350 8,500 -828 Descending FlightAware
07:58PM 41.8680 -88.0180 53° Northeast 297 342 8,000 -1,071 Descending FlightAware
07:59PM 41.8830 -87.9730 66° East 302 348 7,500 -686 Descending FlightAware
07:59PM 41.8840 -87.8940 89° East 308 354 7,200 -346 Descending FlightAware
08:00PM 41.8840 -87.8760 90° East 309 356 7,200  Level FlightAware
08:00PM 41.8840 -87.8170 90° East 283 326 7,200  Level FlightAware
08:00PM 41.8840 -87.7900 90° East 269 310 7,200 -1,179 Level FlightAware
08:01PM 41.8840 -87.7240 90° East 257 296 6,100 -1,853 Descending FlightAware
08:01PM 41.8860 -87.6810 86° East 251 289 5,100 -2,182 Descending FlightAware
08:02PM 41.8940 -87.6600 63° Northeast 229 264 4,500 -1,929 Descending FlightAware
08:02PM 41.9040 -87.6520 31° Northeast 209 241 4,200 -1,636 Descending FlightAware
08:02PM 41.9130 -87.6500 North 200 230 3,900 -737 Descending FlightAware
08:03PM 41.9460 -87.6650 341° North 159 183 3,500 -667 Descending FlightAware
08:03PM 41.9550 -87.6870 299° West 159 183 3,100 -941 Descending FlightAware
08:04PM 41.9650 -87.7100 300° West 161 185 2,700 -818 Descending FlightAware
08:04PM 41.9690 -87.7270 288° West 158 182 2,500 -391 Descending FlightAware
08:04PM 41.9690 -87.7510 270° West 156 180 2,400 -111 Descending FlightAware
08:05PM 41.9690 -87.7760 270° West 166 191 2,400 -444 Level FlightAware
08:05PM 41.9690 -87.8060 270° West 153 176 2,000 -900 Descending FlightAware
08:06PM 41.9690 -87.8170 270° West 143 165 1,800 -732 Descending FlightAware
08:06PM 41.9690 -87.8420 270° West 133 153 1,500 -737 Descending FlightAware
08:07PM 41.9690 -87.8660 270° West 140 161 1,100 -857 Descending FlightAware